Fort Irwin, CA

2:08 PM PST on February 06, 2016 (GMT -0800)
Fort Irwin/Barstow, Bicycle L

Weather History for KBYS - August, 2014

Change the Weather History Date:

Monday, August 18, 2014

  Actual Average (KDAG) Record (KDAG)
Temperature  
Mean Temperature 87 °F -  
Max Temperature 95 °F 99 °F 111 °F (1950)
Min Temperature 79 °F 71 °F 61 °F (1976)
Cooling Degree Days 22    
Growing Degree Days 37 (Base 50)    
Moisture  
Dew Point 42 °F    
Average Humidity 21    
Maximum Humidity 32    
Minimum Humidity 14    
Precipitation  
Precipitation 0.00 in - - ()
Sea Level Pressure  
Sea Level Pressure 29.68 in    
Wind  
Wind Speed 12 mph (South)    
Max Wind Speed 24 mph    
Max Gust Speed 34 mph    
Visibility 10 miles    
Events      
Averages and records for this station are not official NWS values.
T = Trace of Precipitation, MM = Missing Value Source: NWS Daily Summary

Daily Weather History Graph

Daily Weather History Graph

Search for Another Location

Airport or City:

Trip Planner

Search our weather history database for the weather conditions in past years. The results will help you decide how hot, cold, wet, or windy it might be!

Date:

Astronomy

Aug. 18, 2014 Rise Set
Actual Time 6:08 AM PDT 7:31 PM PDT
Civil Twilight 5:41 AM PDT 7:58 PM PDT
Nautical Twilight 5:09 AM PDT 8:30 PM PDT
Astronomical Twilight 4:36 AM PDT 9:03 PM PDT
Moon 12:21 AM PDT (8/18) 2:35 PM PDT (8/18)
Length of Visible Light 14h 16m
Length of Day
13h 23m
Last Quarter, 37% of the Moon is Illuminated
Aug 18
Last Quarter
Aug 25
New
Sep 2
First Quarter
Sep 8
Full
Sep 15
Last Quarter

Hourly Weather History & Observations

Time (PDT) Temp. Heat Index Dew Point Humidity Pressure Visibility Wind Dir Wind Speed Gust Speed Precip Events Conditions
12:55 AM 84.9 °F - 34.0 °F 16% 29.70 in 10.0 mi WSW 11.5 mph - N/A   Clear
1:55 AM 83.3 °F - 34.2 °F 17% 29.68 in 10.0 mi WNW 11.5 mph - N/A   Clear
2:55 AM 82.0 °F - 33.6 °F 17% 29.68 in 10.0 mi West 12.7 mph - N/A   Clear
3:55 AM 81.3 °F - 32.9 °F 17% 29.69 in 10.0 mi West 5.8 mph - N/A   Clear
4:55 AM 80.8 °F - 32.7 °F 18% 29.68 in 10.0 mi Calm Calm - N/A   Clear
5:55 AM 79.0 °F - 32.5 °F 19% 29.70 in 10.0 mi NNW 1.2 mph - N/A   Clear
6:55 AM 79.9 °F - 31.3 °F 17% 29.73 in 10.0 mi ESE 8.1 mph - N/A   Partly Cloudy
7:55 AM 81.9 °F - 29.8 °F 15% 29.75 in 10.0 mi SE 19.6 mph - N/A   Partly Cloudy
8:55 AM 84.4 °F - 33.4 °F 16% 29.76 in 10.0 mi South 15.0 mph - N/A   Clear
9:55 AM 86.2 °F - 47.8 °F 26% 29.76 in 10.0 mi South 12.7 mph 17.3 mph N/A   Clear
10:55 AM 90.9 °F - 49.3 °F 24% 29.75 in 10.0 mi SSE 11.5 mph 24.2 mph N/A   Clear
11:55 AM 91.6 °F - 49.8 °F 24% 29.72 in 10.0 mi South 15.0 mph 21.9 mph N/A   Clear
12:55 PM 93.7 °F 91.2 °F 53.2 °F 25% 29.69 in 10.0 mi SE 11.5 mph 23.0 mph N/A   Clear
1:55 PM 95.7 °F - 52.3 °F 23% 29.67 in 10.0 mi ESE 11.5 mph 23.0 mph N/A   Scattered Clouds
2:55 PM 94.3 °F - 52.9 °F 25% 29.65 in 10.0 mi SE 11.5 mph 23.0 mph N/A   Partly Cloudy
3:55 PM 93.7 °F 91.2 °F 53.4 °F 25% 29.63 in 10.0 mi ESE 23.0 mph 28.8 mph N/A   Partly Cloudy
4:55 PM 93.2 °F - 51.8 °F 24% 29.61 in 10.0 mi SSE 23.0 mph 32.2 mph N/A   Partly Cloudy
5:55 PM 91.0 °F 88.7 °F 54.0 °F 28% 29.62 in 10.0 mi ESE 23.0 mph 34.5 mph N/A   Clear
6:55 PM 91.0 °F 88.7 °F 53.6 °F 28% 29.62 in 10.0 mi ESE 18.4 mph 25.3 mph N/A   Partly Cloudy
7:55 PM 89.1 °F 87.3 °F 55.8 °F 32% 29.64 in 10.0 mi SSE 19.6 mph 21.9 mph N/A   Partly Cloudy
8:55 PM 88.0 °F - 45.3 °F 23% 29.66 in 10.0 mi SW 16.1 mph 24.2 mph N/A   Clear
9:55 PM 84.9 °F - 35.2 °F 17% 29.67 in 10.0 mi SW 24.2 mph 29.9 mph N/A   Clear
10:55 PM 82.9 °F - 30.6 °F 15% 29.67 in 10.0 mi WSW 10.4 mph 20.7 mph N/A   Clear
11:55 PM 81.7 °F - 28.0 °F 14% 29.68 in 10.0 mi WSW 15.0 mph 27.6 mph N/A   Partly Cloudy